Theta_e
315 315 315 314 312 312 312 312 312 313 313 313 313 312 315 317 321 321 320 320 323 325 328 328 329 331 332 334 338 337 339 338 338 337 332 330 330 327 328 325 324 322 322
315 317 317 316 313 312 311 310 311 311 311 311 311 312 316 317 320 321 320 319 318 319 322 325 327 329 332 332 334 337 338 338 337 338 329 327 327 327 327 325 323 321 318
317 316 315 313 312 311 311 309 309 309 309 309 310 311 312 313 316 319 320 319 319 318 319 321 324 329 328 331 333 334 334 334 334 335 329 325 324 324 322 320 321 317 317
313 312 311 310 309 308 307 306 306 305 305 306 307 308 309 310 310 314 313 315 316 317 317 317 319 322 322 323 328 332 333 333 334 333 333 326 323 322 321 319 317 317 318
310 309 308 306 306 305 304 304 303 303 303 303 303 304 306 306 307 305 307 310 312 313 315 315 314 313 315 319 319 323 329 332 333 333 331 328 323 320 320 320 322 319 319
307 306 305 304 303 303 302 302 301 302 301 301 302 302 302 303 303 301 300 304 307 309 311 313 315 313 315 312 315 317 321 326 331 331 332 330 328 325 322 322 321 317 320
305 304 303 302 302 301 301 301 301 300 300 300 300 300 301 301 300 299 298 300 302 305 307 309 312 313 313 313 313 310 314 317 323 327 330 331 331 326 324 320 321 320 323
303 302 301 301 301 301 301 300 300 300 300 300 300 300 300 300 298 298 297 299 301 303 304 305 308 310 312 311 311 312 312 313 316 320 325 329 331 330 326 324 321 322 318
301 301 300 300 300 300 300 299 299 299 299 299 299 299 299 299 298 297 297 299 300 301 301 302 304 306 308 308 309 311 312 312 312 315 320 325 329 328 327 323 320 320 321
300 299 299 299 299 298 298 297 296 296 297 298 298 298 298 298 298 297 296 298 299 300 301 301 302 303 304 304 306 310 311 312 312 314 322 322 325 326 328 324 322 319 322
299 299 298 298 298 297 296 296 296 296 296 297 297 297 297 297 297 296 295 296 298 299 300 301 302 303 304 302 302 306 308 310 311 311 313 321 323 324 323 323 324 323 323
297 297 298 298 297 297 296 296 296 297 297 297 297 297 298 297 296 296 295 294 295 297 299 299 301 301 300 299 300 302 303 304 307 310 312 319 322 321 322 324 324 322 324
296 295 295 295 296 296 296 296 296 297 296 297 297 297 297 297 296 295 294 294 294 295 297 298 297 298 299 299 301 300 300 305 307 310 311 316 322 322 322 320 321 321 322
293 293 294 294 295 295 295 295 296 296 296 296 296 296 296 296 295 295 295 295 294 294 295 296 297 295 295 297 298 301 304 307 308 309 311 315 321 322 321 320 319 319 319
293 292 293 293 293 294 294 294 294 295 295 295 294 294 294 294 295 294 293 293 293 293 292 293 294 295 296 298 299 301 303 305 309 309 310 313 319 321 321 320 319 317 317
292 292 292 293 294 294 294 294 294 293 294 294 293 293 293 293 293 293 293 292 293 293 292 293 293 294 295 296 298 300 302 304 307 310 310 312 317 319 322 320 319 318 318
293 292 293 293 294 294 294 294 294 294 294 294 294 294 293 293 293 293 292 292 292 292 291 293 294 294 295 295 296 299 301 302 305 309 311 313 316 318 321 321 320 319 319
294 293 293 294 294 294 294 294 294 294 294 294 294 294 293 293 293 292 292 291 292 293 292 294 294 294 295 295 296 298 300 301 301 306 311 311 315 317 319 321 321 320 320
294 294 294 293 293 293 292 293 293 293 294 294 294 293 293 293 292 291 291 291 292 293 293 294 294 294 295 296 296 298 299 301 301 304 308 312 314 316 317 319 322 321 320
294 293 291 291 291 292 292 293 293 293 293 293 293 292 292 291 291 291 291 291 292 292 292 293 294 294 295 296 297 298 299 301 300 303 306 308 314 316 317 319 321 319 317
293 292 291 291 292 292 293 293 292 292 292 291 291 291 290 289 290 290 291 291 291 291 291 292 293 294 295 296 297 298 299 300 300 304 304 310 313 316 317 318 320 318 317
292 291 291 291 291 292 292 291 291 291 290 290 290 289 289 289 290 290 290 290 291 291 291 292 292 293 294 296 297 298 300 300 301 301 303 310 313 316 317 317 320 319 318
291 291 291 291 291 290 290 290 289 289 289 289 289 289 289 289 289 289 289 289 290 290 290 292 291 293 294 294 296 298 300 300 300 301 304 308 312 316 316 318 318 319 317
290 290 290 289 289 289 289 289 289 288 288 288 288 288 288 288 288 288 288 288 289 290 290 290 292 292 293 294 295 298 300 301 300 302 303 309 314 315 316 317 318 319 318
289 289 289 289 288 288 288 288 288 287 287 287 287 288 288 288 288 288 288 289 289 289 290 290 291 292 293 294 295 297 299 299 300 303 305 307 313 314 315 316 317 317 317
289 288 288 288 287 287 287 287 287 287 287 287 287 288 288 288 288 288 289 289 289 288 289 290 291 293 293 293 296 297 297 299 300 302 303 307 310 313 312 314 316 316 317
Wind_Speed
9 9 8 7 4 2 1 3 6 9 10 14 17 18 16 12 11 10 10 10 9 8 7 7 8 11 12 12 9 9 12 14 14 7 10 15 18 15 15 13 12 13 13
6 5 5 5 5 5 6 6 7 8 9 11 16 17 16 15 13 11 10 9 12 11 10 10 9 8 10 12 13 9 9 11 15 15 11 12 14 18 18 16 15 13 9
2 4 4 5 6 5 5 6 8 11 13 14 14 15 15 17 14 13 11 8 8 10 10 10 10 10 8 10 12 13 11 9 10 13 6 12 15 19 17 15 14 9 8
3 4 4 5 5 7 8 10 12 14 16 18 18 18 17 16 17 12 14 14 9 9 9 9 8 9 10 10 11 12 11 11 9 13 12 7 11 17 18 15 13 12 10
5 4 4 5 7 9 11 13 15 16 16 18 18 20 17 17 15 16 16 14 12 11 12 9 8 10 9 8 9 11 10 13 12 12 13 10 9 12 19 11 12 11 13
4 3 5 8 10 12 14 15 16 16 16 16 16 16 18 18 19 22 19 18 16 13 15 14 10 11 9 9 7 8 9 10 14 15 14 12 16 17 16 15 14 10 8
4 6 8 11 13 14 15 16 16 17 17 17 16 16 17 18 20 22 21 18 17 17 16 14 12 11 12 9 9 10 9 10 11 17 17 16 13 17 17 19 19 16 9
7 9 11 13 15 16 17 17 18 19 18 17 17 18 18 19 20 21 21 20 18 17 17 16 15 15 13 12 11 9 9 10 11 11 15 20 17 15 20 19 19 14 8
9 10 12 13 16 17 19 21 21 20 19 18 18 18 18 19 17 19 17 17 18 19 18 17 16 17 17 16 10 11 11 11 12 12 13 18 21 23 18 22 21 19 12
11 13 15 15 17 18 19 17 18 20 21 19 20 18 18 18 17 17 18 16 16 15 17 17 16 15 17 19 15 13 12 14 13 13 11 15 17 25 24 27 26 23 10
13 15 16 17 16 17 19 18 18 19 18 19 19 20 19 17 17 16 15 15 15 14 14 16 14 13 12 10 9 11 15 14 15 16 16 15 14 23 30 29 31 24 15
14 17 16 15 16 17 19 20 19 18 19 18 18 19 17 15 15 15 15 16 16 14 13 14 14 13 12 11 10 10 12 13 15 18 16 15 16 23 30 34 33 31 17
16 16 16 17 17 17 18 19 19 18 18 18 18 18 18 16 16 16 16 15 15 14 13 14 16 17 15 16 13 12 12 11 12 16 18 19 17 24 29 31 29 24 18
15 18 18 18 19 20 19 19 19 19 19 19 19 19 19 18 17 15 13 13 13 13 13 13 12 15 17 19 21 18 14 15 13 14 17 19 15 19 24 26 24 28 22
16 18 18 18 19 19 18 19 19 20 21 22 23 23 23 21 21 21 23 21 18 16 18 19 20 18 18 19 18 15 16 16 17 17 17 17 19 17 23 27 24 27 20
16 17 18 20 19 20 20 21 21 26 27 27 28 28 29 28 29 27 25 25 25 23 20 17 17 17 19 17 16 16 15 17 19 19 17 19 21 18 18 25 24 27 20
16 17 19 20 20 20 20 21 22 23 24 27 28 28 28 28 26 27 25 24 24 21 20 18 18 18 19 17 18 19 17 17 15 17 18 20 22 18 16 21 24 25 22
18 20 20 20 22 22 22 22 23 23 23 23 25 27 29 29 26 26 24 23 21 16 18 19 17 17 18 17 18 20 19 17 16 16 18 21 22 19 16 19 21 24 21
21 21 23 24 22 23 23 23 23 23 23 23 26 24 22 22 22 24 23 20 19 18 19 19 18 17 18 17 19 19 18 17 16 15 14 20 23 22 20 19 21 25 22
21 23 23 23 23 23 23 23 23 22 22 22 22 22 21 21 21 19 17 17 18 19 18 18 17 16 18 18 17 19 19 16 16 17 17 18 22 24 21 22 21 23 26
24 22 24 22 21 23 24 24 24 24 23 23 23 23 24 25 24 22 20 18 18 17 17 17 17 16 16 18 18 18 18 16 17 17 18 19 22 23 21 21 20 25 23
20 20 20 21 23 24 24 26 24 24 24 24 25 25 24 23 21 21 20 19 18 18 17 16 16 15 16 16 17 17 17 15 17 17 18 15 22 24 22 22 20 25 24
18 19 21 22 22 24 24 23 24 24 25 25 24 23 21 20 20 21 20 19 18 17 16 16 17 17 14 18 17 16 15 16 17 15 15 15 23 22 21 22 23 24 24
18 20 22 23 24 26 24 25 24 24 24 24 23 23 22 21 21 21 21 20 17 16 16 16 15 14 14 16 19 15 14 10 12 13 14 7 21 21 21 20 19 23 25
23 24 24 24 25 25 25 24 25 25 25 24 24 23 22 21 21 20 19 17 16 15 14 14 13 15 14 16 17 13 9 15 14 10 4 3 10 17 16 16 17 19 22
26 26 25 25 25 25 25 26 26 26 26 26 25 23 23 22 21 19 17 15 14 13 13 12 12 14 12 13 14 15 13 10 18 13 6 5 11 14 15 13 15 14 19
Wind_Direction
90 85 77 72 76 78 147 294 296 310 313 314 313 319 322 329 328 340 351 346 351 355 347 343 328 289 270 255 249 236 240 244 257 224 209 216 208 205 202 193 196 193 200
100 64 24 36 45 30 21 5 332 318 317 321 317 318 320 320 320 323 331 340 337 339 340 344 329 323 281 264 254 248 241 234 248 251 209 204 207 207 209 200 203 200 193
356 19 35 40 41 29 15 335 323 320 320 318 319 321 323 322 320 319 321 325 327 323 329 334 347 338 330 288 262 254 249 241 226 232 201 201 208 201 197 197 203 198 197
108 83 62 31 8 344 335 327 322 316 314 311 306 305 310 313 320 325 327 322 317 309 311 319 340 336 344 346 328 266 247 239 225 221 214 195 200 203 205 201 195 202 208
96 68 21 354 331 323 322 318 314 312 308 307 309 304 301 302 305 315 321 313 310 314 302 302 311 313 327 328 334 322 284 252 233 214 213 194 190 177 193 202 207 206 214
71 29 340 322 319 320 319 317 314 312 310 307 307 305 305 302 291 306 319 308 307 301 296 301 309 300 301 303 309 311 307 293 259 233 219 210 214 206 187 190 188 188 216
13 341 326 320 318 318 314 310 310 311 306 302 299 300 299 299 302 306 312 310 301 291 290 291 295 288 300 303 302 300 301 295 280 263 258 231 221 208 190 186 195 206 207
338 328 325 322 316 312 309 306 304 303 297 296 297 297 296 296 297 301 311 308 294 288 285 285 279 280 281 287 293 291 288 287 285 289 276 257 238 219 216 209 197 192 170
323 321 319 318 315 313 310 308 305 304 303 300 297 297 296 294 297 298 309 298 293 297 294 285 281 273 274 274 271 272 278 284 287 276 285 265 248 244 229 198 175 188 193
327 325 320 315 311 312 313 310 307 305 303 306 305 304 301 301 303 298 307 295 284 282 290 293 285 280 267 267 261 261 263 264 278 290 290 277 258 243 238 221 197 191 179
325 317 311 307 305 315 311 307 305 306 306 304 302 302 305 308 307 304 304 301 289 284 282 279 277 278 278 276 276 256 249 257 271 277 275 273 274 236 225 220 216 203 179
316 310 307 306 306 305 307 306 303 302 302 304 304 305 308 308 306 304 300 294 293 288 286 279 281 266 268 288 291 270 273 257 253 258 256 261 243 225 225 221 218 207 218
320 317 315 311 307 306 303 303 305 306 302 301 303 304 307 308 305 304 304 297 294 286 278 280 283 273 277 287 284 281 280 258 241 242 244 243 238 240 231 214 208 205 200
322 316 308 305 305 302 299 299 302 304 304 301 302 300 300 300 297 299 302 306 308 305 296 287 279 282 285 278 277 274 263 246 243 247 243 241 239 227 215 206 192 184 177
319 317 312 307 302 301 295 292 290 290 288 294 294 294 296 293 291 293 296 295 295 293 295 287 280 271 268 265 262 260 255 252 239 241 242 241 235 224 206 203 191 178 167
317 315 309 305 300 298 295 294 289 290 297 297 294 287 286 285 294 298 299 299 297 295 285 272 269 265 262 264 263 254 252 246 246 237 238 232 232 226 207 195 191 186 178
302 307 309 305 300 297 296 293 292 294 293 294 298 296 291 288 294 296 296 296 293 288 263 258 256 258 259 255 256 251 242 243 241 257 228 228 225 222 215 190 189 191 188
306 302 301 302 299 296 295 293 293 293 294 292 292 293 294 291 293 295 288 294 284 265 250 254 255 256 256 247 247 250 241 245 247 244 237 222 224 217 212 215 179 189 178
312 310 312 308 300 298 298 297 292 289 287 288 295 295 296 294 292 299 286 271 271 264 256 253 255 253 246 249 246 249 242 239 243 248 259 225 219 217 214 210 194 184 177
315 311 309 307 303 299 297 295 295 296 295 295 294 294 300 302 299 294 283 275 271 270 268 259 251 253 248 246 248 245 244 237 244 245 246 249 223 214 212 207 191 175 174
316 313 313 309 302 299 298 299 301 301 299 299 297 298 295 292 291 289 287 281 274 271 270 265 261 254 250 249 242 245 241 238 241 240 242 248 224 213 209 204 186 178 174
312 311 309 304 302 303 304 305 303 302 301 300 300 299 297 291 283 283 282 277 275 269 267 263 261 252 246 246 239 239 239 237 239 247 252 243 220 215 205 203 185 170 167
320 317 315 313 313 312 311 309 306 303 301 301 300 298 297 290 285 282 280 280 273 267 265 256 257 247 247 244 246 240 239 239 238 247 258 264 216 201 197 194 195 171 165
330 327 323 320 318 316 313 310 310 309 306 304 303 300 296 293 290 286 283 280 272 266 260 255 246 247 241 240 242 241 232 230 232 242 248 257 186 186 184 187 179 174 170
339 332 327 324 321 319 320 319 317 315 312 309 307 306 303 300 294 288 284 278 270 263 257 251 248 237 240 238 233 235 242 231 229 232 221 199 168 171 171 174 176 174 166
346 339 334 330 328 327 324 322 320 319 317 317 316 313 310 306 300 294 287 278 269 261 254 251 245 232 233 234 225 229 232 230 223 225 216 203 185 175 170 170 179 179 184